Asheville, NC

2:27 AM EDT on April 27, 2017 (GMT -0400)
Asheville Regional

Weather History for KAVL - March, 2009

Change the Weather History Date:

Saturday, March 14, 2009

  Actual Average Record
Temperature  
Mean Temperature 39 °F 46 °F  
Max Temperature 42 °F 58 °F 82 °F (1973)
Min Temperature 35 °F 35 °F 8 °F (1993)
Degree Days  
Heating Degree Days 26 18  
Month to date heating degree days 278 280  
Since 1 July heating degree days 3574 3497  
Cooling Degree Days 0 0  
Month to date cooling degree days 0 0  
Year to date cooling degree days 0 0  
Moisture  
Dew Point 37 °F    
Average Humidity 96    
Maximum Humidity 100    
Minimum Humidity 92    
Precipitation  
Precipitation 0.40 in 0.13 in 1.41 in (1946)
Month to date precipitation 0.93 1.73  
Year to date precipitation 5.20 9.16  
Snow  
Snow 0.00 in 0.10 in 2.00 in (1924)
Month to date snowfall 5.1 1.0  
Since 1 July snowfall 6.1 8.3  
Snow Depth -    
Sea Level Pressure  
Sea Level Pressure 30.18 in    
Wind  
Wind Speed 7 mph (South)    
Max Wind Speed 13 mph    
Max Gust Speed 17 mph    
Visibility 5 miles    
Events Rain    
T = Trace of Precipitation, MM = Missing Value Source: NWS Daily Summary

Daily Weather History Graph

Daily Weather History Graph

Search for Another Location

Airport or City:

Trip Planner

Search our weather history database for the weather conditions in past years. The results will help you decide how hot, cold, wet, or windy it might be!

Date:

Astronomy

Mar. 14, 2009 Rise Set
Actual Time 7:41 AM EDT 7:37 PM EDT
Civil Twilight 7:16 AM EDT 8:02 PM EDT
Nautical Twilight 6:47 AM EDT 8:31 PM EDT
Astronomical Twilight 6:17 AM EDT 9:01 PM EDT
Moon 11:45 PM EDT (3/14) 9:15 AM EDT (3/14)
Length of Visible Light 12h 45m
Length of Day
11h 55m
Waning Gibbous, 86% of the Moon is Illuminated
Mar 14
Waning Gibbous
Mar 18
Last Quarter
Mar 26
New
Apr 2
First Quarter
Apr 9
Full

Hourly Weather History & Observations

Time (EDT) Temp. Windchill Dew Point Humidity Pressure Visibility Wind Dir Wind Speed Gust Speed Precip Events Conditions
12:54 AM 37.0 °F 31.6 °F 35.1 °F 93% 30.24 in 6.0 mi South 6.9 mph - 0.00 in   Overcast
1:50 AM 35.6 °F 31.7 °F 35.6 °F 100% 30.21 in 4.0 mi South 4.6 mph - 0.01 in Rain Light Rain
1:54 AM 36.0 °F 31.1 °F 35.1 °F 97% 30.22 in 4.0 mi South 5.8 mph - 0.01 in Rain Light Rain
2:54 AM 36.0 °F 30.3 °F 35.1 °F 97% 30.22 in 4.0 mi South 6.9 mph - 0.00 in Rain Light Rain
3:54 AM 36.0 °F 33.3 °F 35.1 °F 97% 30.21 in 4.0 mi South 3.5 mph - 0.01 in Rain Light Rain
4:41 AM 35.6 °F 31.7 °F 35.6 °F 100% 30.18 in 4.0 mi South 4.6 mph - 0.02 in Rain Light Rain
4:54 AM 36.0 °F - 35.1 °F 97% 30.19 in 5.0 mi Calm Calm - 0.02 in Rain Light Rain
5:04 AM 35.6 °F - 35.6 °F 100% 30.16 in 5.0 mi Calm Calm - 0.00 in Rain Light Rain
5:25 AM 35.6 °F 31.7 °F 35.6 °F 100% 30.18 in 4.0 mi SSW 4.6 mph - 0.02 in Rain Light Rain
5:32 AM 35.6 °F 32.8 °F 35.6 °F 100% 30.18 in 4.0 mi South 3.5 mph - 0.03 in Rain Light Rain
5:54 AM 36.0 °F 32.1 °F 35.1 °F 97% 30.20 in 4.0 mi SSW 4.6 mph - 0.05 in Rain Light Rain
6:31 AM 35.6 °F 32.8 °F 35.6 °F 100% 30.19 in 5.0 mi SSE 3.5 mph - 0.03 in Rain Light Rain
6:42 AM 35.6 °F - 35.6 °F 100% 30.18 in 4.0 mi Calm Calm - 0.05 in Rain Light Rain
6:54 AM 36.0 °F 33.3 °F 35.1 °F 97% 30.20 in 4.0 mi South 3.5 mph - 0.06 in Rain Rain
7:27 AM 35.6 °F - 35.6 °F 100% 30.17 in 4.0 mi Calm Calm - 0.03 in Rain Light Rain
7:54 AM 36.0 °F 31.1 °F 35.1 °F 97% 30.18 in 5.0 mi SSE 5.8 mph - 0.04 in Rain Light Rain
8:05 AM 35.6 °F 30.7 °F 35.6 °F 100% 30.17 in 2.5 mi South 5.8 mph - 0.01 in Rain Light Rain
8:54 AM 36.0 °F 31.1 °F 35.1 °F 97% 30.19 in 2.5 mi SSE 5.8 mph - 0.04 in Rain Rain
9:54 AM 37.0 °F 32.4 °F 36.0 °F 96% 30.22 in 2.0 mi South 5.8 mph - 0.05 in Rain Rain
10:54 AM 37.0 °F 29.8 °F 36.0 °F 96% 30.23 in 2.0 mi South 10.4 mph - 0.06 in Rain Light Rain
11:01 AM 37.4 °F 30.3 °F 35.6 °F 93% 30.21 in 3.0 mi South 10.4 mph - 0.00 in Rain Light Rain
11:54 AM 37.9 °F 32.1 °F 37.0 °F 97% 30.23 in 3.0 mi SSE 8.1 mph - 0.02 in Rain Light Rain
12:54 PM 39.0 °F 32.8 °F 37.0 °F 93% 30.21 in 10.0 mi South 9.2 mph - 0.01 in Rain Light Rain
1:54 PM 39.0 °F 32.8 °F 37.9 °F 96% 30.20 in 6.0 mi SSE 9.2 mph - 0.01 in Rain Light Rain
2:54 PM 41.0 °F 34.3 °F 39.0 °F 93% 30.16 in 7.0 mi South 11.5 mph - 0.00 in Rain Light Rain
3:54 PM 41.0 °F 35.2 °F 39.9 °F 96% 30.13 in 10.0 mi SSE 9.2 mph - 0.01 in Rain Light Rain
4:40 PM 41.0 °F 35.8 °F 39.2 °F 93% 30.11 in 8.0 mi South 8.1 mph - 0.00 in   Overcast
4:54 PM 41.0 °F 36.4 °F 39.9 °F 96% 30.12 in 4.0 mi SSE 6.9 mph - 0.00 in Rain Light Rain
5:37 PM 41.0 °F 33.9 °F 39.2 °F 93% 30.10 in 2.5 mi SSE 12.7 mph - 0.00 in Rain Light Rain
5:50 PM 39.2 °F 32.0 °F 39.2 °F 100% 30.10 in 3.0 mi SSE 11.5 mph - 0.00 in Rain Light Rain
5:54 PM 39.9 °F 34.5 °F 39.0 °F 97% 30.13 in 3.0 mi SSE 8.1 mph 17.3 mph 0.00 in Rain Light Rain
6:54 PM 39.0 °F 34.0 °F 37.9 °F 96% 30.13 in 9.0 mi SSE 6.9 mph - 0.01 in Rain Light Rain
7:54 PM 39.0 °F 34.8 °F 37.9 °F 96% 30.14 in 10.0 mi South 5.8 mph - 0.00 in   Overcast
8:54 PM 39.0 °F 33.4 °F 37.9 °F 96% 30.15 in 9.0 mi South 8.1 mph - 0.00 in Rain Light Rain
9:54 PM 37.9 °F 32.7 °F 37.9 °F 100% 30.16 in 5.0 mi South 6.9 mph - 0.00 in   Overcast
10:54 PM 37.9 °F 32.7 °F 37.9 °F 100% 30.16 in 5.0 mi SSE 6.9 mph - 0.00 in   Overcast
11:54 PM 37.9 °F 32.1 °F 37.9 °F 100% 30.15 in 8.0 mi South 8.1 mph - 0.00 in Rain Light Rain